Regional Weather Roundup
Issued by NWS Jackson, KY

Home | Current Version | Previous Version | Graphics & Text | Print | Product List | Glossary On
Versions: 1 2 3 4 5 6 7 8 9 10 11 12 13 14 15 16 17 18 19 20 21 22 23 24 25 26 27 28 29 30 31 32 33 34 35 36 37 38 39 40 41 42 43 44 45 46 47 48 49 50
290
ASUS43 KJKL 260310
RWRJKL

EAST KENTUCKY HOURLY WEATHER ROUNDUP
NATIONAL WEATHER SERVICE JACKSON KY
1100 PM EDT MON JUL 25 2016

NOTE: "FAIR" INDICATES FEW OR NO CLOUDS BELOW 12,000 FEET WITH
NO SIGNIFICANT WEATHER AND/OR OBSTRUCTIONS TO VISIBILITY.

* THESE REPORTS ARE NOT UNDER NWS QUALITY CONTROL AND MAY NOT
  REPORT WEATHER SUCH AS PRECIPITATION AND FOG.

KYZ079-080-083-085-087-088-110-112-115-119-120-260400
...EASTERN KENTUCKY...

CITY           SKY/WX    TMP DP  RH WIND       PRES   REMARKS
JACKSON        MOCLDY    74  72  93 CALM      30.07R
LONDON         CLOUDY    74  68  81 W5        30.07R
SOMERSET*      MOCLDY    72  72 100 S3        30.07S
MONTICELLO*    PTCLDY   N/A N/A N/A CALM      30.07S
WILLIAMSBURG*  CLOUDY    73  73 100 S3        30.08S
MIDDLESBORO*   PTCLDY    80  71  74 W7        30.08F
HARLAN APT*      N/A     73  70  88 CALM      30.11R
PIKE CO APT*     N/A     74  74 100 CALM      30.08R
BIG SANDY APT* CLOUDY    77  74  89 CALM      30.06R
MOREHEAD APT*  CLOUDY    75  73  94 CALM      30.05S
ASHLAND*       CLOUDY    75  73  94 CALM      29.99S
$$

KYZ035-036-041-042-044-050-067-078-099-260400
...CENTRAL KENTUCKY...

CITY           SKY/WX    TMP DP  RH WIND       PRES   REMARKS
MT STERLING*   CLOUDY    75  75 100 CALM      30.05S
FLEMING/MASON* MOCLDY    75  74  96 S6        30.04R
DANVILLE*      PTCLDY    72  72 100 CALM      30.05S
RICHMOND*      PTCLDY    75  72  88 CALM      30.04S
LEXINGTON      PTCLDY    76  72  87 S5        30.03S
FRANKFORT      CLOUDY    77  72  84 W5        30.02R
LOUISVILLE     MOCLDY    78  73  84 S5        29.99S
LEBANON*         N/A     75  73  94 SE6       30.03F
GLASGOW*       PTCLDY    75  74  96 CALM      30.01S
BOWLING GREEN  CLOUDY    76  72  87 SW3       30.01R
$$

KYZ091>093-OHZ055-061-077-WVZ005-015-034-035-042-260400
...SOUTHERN OHIO/WEST VIRGINIA...

CITY           SKY/WX    TMP DP  RH WIND       PRES   REMARKS
COVINGTON      CLOUDY    78  76  93 S3        30.01R
COLUMBUS       MOCLDY    81  66  60 NW7       29.98R
DAYTON         MOCLDY    79  71  76 NW6       30.02R
WILMINGTON     CLOUDY    76  73  91 S3        30.01S
HUNTINGTON       N/A     76  73  91 S3        30.01R
CHARLESTON     MOCLDY    81  72  74 SW8       30.02R
PINEVILLE*       N/A     72  67  85 MISG      30.14R
BECKLEY          N/A     71  67  87 S5        30.13R
BLUEFIELD        N/A     73  67  81 W7        30.17R
LOGAN CO APT*    N/A     75  72  88 CALM      30.07R
$$

VAZ002-007-008-TNZ017-027-036-066-071-260400
...SOUTHWEST VIRGINIA/EAST TENNESSEE...

CITY           SKY/WX    TMP DP  RH WIND       PRES   REMARKS
WISE*            N/A     72  70  94 SE3       30.17R
JONESVILLE*      N/A     73  72  94 CALM      30.11R
ABINGDON*        N/A     75  70  83 CALM      30.14S
BRISTOL        CLOUDY    79  70  74 VRB3      30.09R
MORRISTOWN*    CLOUDY    82  72  69 CALM      30.07R
SEVIERVILLE*   CLOUDY    82  72  69 SW6       30.06R
KNOXVILLE      MOCLDY    83  69  62 S5        30.04R
OAK RIDGE      PTCLDY    84  71  65 CALM      30.05R
CROSSVILLE     CLOUDY    76  71  85 CALM      30.10S
NASHVILLE      MOCLDY    82  73  74 N7        30.01S
$$

...KEY TO REMARKS...
VSB - VISIBILITY IN MILES
WCI - WIND CHILL INDEX
HX  - HEAT INDEX

$$




USA.gov is the U.S. government's official web portal to all federal, state and local government web resources and services.